Current Version              Previous Version:    01  02  03  04  05  06  07  08  09  10  11  12  13  14  15  16  17  18  19  20  21  22  23  24  25  26  27  28  29  30  
   31  32  33  34  35  36  37  38  39  40  41  42  43  44  45  46  47  48  49  50  51  52  53  54  55  56  57  58  59  60  

[Printable]
371
ASUS44 KLUB 260101
RWRTX
WEST TEXAS WEATHER ROUNDUP
NATIONAL WEATHER SERVICE LUBBOCK TX
800 PM CDT SAT OCT 25 2014

NOTE: "FAIR" INDICATES FEW OR NO CLOUDS BELOW 12,000 FEET WITH NO
SIGNIFICANT WEATHER AND/OR OBSTRUCTIONS TO VISIBILITY.

TXZ004-006>008-010-012-014-016-OKZ002-260200-
TEXAS PANHANDLE/OKLAHOMA PANHANDLE

CITY           SKY/WX    TMP DP  RH WIND       PRES   REMARKS
AMARILLO       CLEAR     70  50  49 SE12      30.07F
BORGER         CLEAR     78  48  34 S13       30.03S
CANADIAN       CLEAR     78  50  38 S12       30.01R
DALHART        CLEAR     72  41  32 S13       30.05F
DUMAS            N/A     69  45  41 S10       30.05S
GUYMON         CLEAR     76  43  30 S10       29.98S
HEREFORD       CLEAR     66  51  58 MISG      30.09R
PAMPA          CLEAR     69  48  45 S9        30.06F
$$

TXZ026-029-035-045-048-260200-
SOUTHERN PANHANDLE/SOUTH PLAINS/ROLLING PLAINS

CITY           SKY/WX    TMP DP  RH WIND       PRES   REMARKS
CHILDRESS      CLEAR     74  51  44 S9        30.04S
SEMINOLE       CLEAR     69  52  55 SW3       30.12S
LUBBOCK        CLEAR     70  52  52 SE12      30.09S
PLAINVIEW      CLEAR     69  53  58 S9        30.09R
SNYDER         CLEAR     74  53  48 SE8       30.09S
$$

TXZ052-054-060>062-072-078-127-140-154-169-260200-
PERMIAN BASIN/CONCHO VALLEY/BIG COUNTRY/EDWARDS PLATEAU

CITY           SKY/WX    TMP DP  RH WIND       PRES   REMARKS
ABILENE        CLEAR     78  49  35 SE6       30.08S
BIG SPRING     CLEAR     74  53  47 SE7       30.11R
BRADY          CLEAR     75  54  46 SE5       30.10R
JUNCTION       CLEAR     77  52  41 SW3       30.10R
MIDLAND        CLEAR     78  48  34 S8        30.09R
ODESSA         CLEAR     77  48  35 S7        30.10S
SAN ANGELO     CLEAR     76  48  37 S6        30.08S
SONORA         CLEAR     75  52  43 CALM      30.16R
SWEETWATER     CLEAR     73  49  41 SE8       30.12S
WINK           CLEAR     76  50  40 E5        30.06S
$$

TXZ055-058-074-075-080-082-260200-
FAR WEST/SOUTHWEST MOUNTAINS/TRANS PECOS

CITY           SKY/WX    TMP DP  RH WIND       PRES   REMARKS
ALPINE         CLEAR     68  46  45 SW9       30.24S
DRYDEN           N/A     78  55  44 E9        30.08S
EL PASO        CLEAR     79  44  28 SW3       30.12S
FORT STOCKTON  CLEAR     75  49  39 S6        30.09S
MARFA          CLEAR     66  48  52 S5        30.24S
PECOS          CLEAR     73  54  51 E7        30.06R
PRESIDIO       FAIR      78  47  33 NW5       30.09R
$$

TXZ014-016-019-021>030-083-260200
TEXAS TECH WEST TEXAS MESONET/TEXAS PANHANDLE/NORTHERN SOUTH PLAINS

CITY           SKY/WX    TMP DP  RH WIND       PRES   REMARKS
ABERNATHY 5ENE   N/A     68  53  56 SE9       30.11R
AMARILLO 9NNE    N/A     70  49  47 S9        30.05S
AMARILLO 7SSE    N/A     70  51  51 S9        30.08F
AMHERST 1NE      N/A     70  47  45 S8        30.10S
BOOTLEG 11WNW    N/A     64  42  45 S12       30.13S
CANADIAN 6E      N/A     73  51  46 S6        30.00S
CAPROCK CYN SP   N/A     69  52  54 S8        30.07R
CHILDRESS 2NNE   N/A     79  49  35 S10       30.03S
CLARENDON 2WSW   N/A     70  47  44 S9        30.06S
DIMMITT 2NE      N/A     69  48  47 S10       30.10S
FLOYDADA 2NNE    N/A     68  51  54 S8        30.10R
FRIONA 2NE       N/A     68  46  44 S10       30.10S
GOODLETT 3W      N/A     75  49  39 S7        30.02R
HART 3N          N/A     66  52  59 SE7       30.10S
HEREFORD 2NW     N/A     71  44  37 S9        30.09R
MCLEAN 1E        N/A     75  47  36 S9        30.04S
MEMPHIS 1NE      N/A     78  49  36 S6        30.03S
MULESHOE 2SSW    N/A     66  46  48 S7        30.10S
OLTON 6S         N/A     66  51  59 S9        30.10R
PALO DURO SP     N/A     76  49  39 S9        30.09S
PAMPA 2E         N/A     72  47  41 S9        30.06S
PLAINVIEW 1S     N/A     72  52  49 S7        30.09S
SILVERTON 7ESE   N/A     67  49  52 S9        30.09S
TULIA 2ENE       N/A     69  52  53 S9        30.09S
TURKEY 2WSW      N/A     74  51  44 S8        30.05R
UMBARGER 3NNE    N/A     69  49  47 S9        30.09S
$$

TXZ033>036-039>041-045>048-260200
TEXAS TECH WEST TEXAS MESONET/SOUTH PLAINS

CITY           SKY/WX    TMP DP  RH WIND       PRES   REMARKS
AIKEN 3WSW       N/A     68  53  58 S10       30.11R
ANTON 6SSW       N/A     68  53  58 SE6       30.10R
BROWNFIELD 2S    N/A     67  52  57 S9        30.11R
DENVR CTY 7WNW   N/A     67  49  52 S9        30.11S
GAIL 2ESE        N/A     71  55  55 SE5       30.07S
LAMESA 2SE       N/A     69  49  48 SE5       30.10S
LEVELLAND 4S     N/A     67  50  53 S7        30.11R
LUBBOCK 3WNW     N/A     75  50  42 SE9       30.10R
MORTON 1ENE      N/A     71  45  39 S8        30.11S
ODONNELL 1N      N/A     72  45  37 SE6       30.10S
PLAINS 3N        N/A     68  47  47 SE7       30.12S
RALLS 1SE        N/A     68  51  55 SE7       30.11S
REESE CENTER     N/A     69  52  55 S8        30.10S
SEMINOLE 2NNE    N/A     70  51  50 S7        30.11S
SLATON 2NE       N/A     66  50  56 SE9       30.10S
SNYDER 3E        N/A     71  54  55 SE8       30.07S
SUNDOWN 8SW      N/A     65  48  53 S9        30.11S
TAHOKA 3NNE      N/A     68  49  51 SE7       30.10R
WOLFFORTH 6SSW   N/A     70  53  53 SE7       30.11R
$$

TXZ031-032-036>038-042>044-260200-
TEXAS TECH WEST TEXAS MESONET/ROLLING PLAINS

CITY           SKY/WX    TMP DP  RH WIND       PRES   REMARKS
ASPERMONT 3NE    N/A     73  54  51 S6        30.05S
FLUVANNA 3WNW    N/A     70  55  57 E5        30.09S
GRAHAM 5SSW      N/A     74  48  39 SE7       30.09S
GUTHRIE 10WSW    N/A     73  52  46 S9        30.05S
HASKELL 1NW      N/A     80  45  28 S8        30.04R
KNOX CITY 3NW    N/A     76  45  32 S10       30.03S
LK A HENRY 1NW   N/A     74  55  52 SE3       30.07S
NORTHFIELD 1S    N/A     76  52  43 S9        30.04S
ODELL 4ENE       N/A     76  52  43 SE8       30.02S
PADUCAH 10SW     N/A     70  52  52 S8        30.05R
POST 1NE         N/A     73  49  42 S6        30.08R
RRING SPRGS 3N   N/A     71  52  52 S7        30.08R
SEYMOUR 3NW      N/A     75  52  45 SE5       30.02S
SPUR 1W          N/A     71  52  50 SE3       30.06S
WEINERT 2NNE     N/A     75  47  37 S8        30.04R
WHITE RVR 6NE    N/A     73  53  49 SE5       30.08S
$$

TXZ052-054-060>062-072-078-127-140-154-169-260200-
TEXAS TECH WEST TEXAS MESONET/PERMIAN BASIN/
CONCHO VALLEY/BIG COUNTRY/EDWARDS PLATEAU

CITY           SKY/WX    TMP DP  RH WIND       PRES   REMARKS
COYANOSA 2N      N/A     76  55  47 N5        30.06S
JUNCTION 1SSW    N/A     74  54  50 SW2       30.11R
MERTZON 3NNE     N/A     75  49  39 S3        30.11R
SAN ANGELO 7NW   N/A     76  45  33 S5        30.08S
STRLNG CT 4WSW   N/A     78  46  32 S8        30.10R
ST LAWRNCE 5SW   N/A     75  40  27 SE8       30.10S
SWEETWATR 11SW   N/A     70  49  47 SE9       30.11R
WALL 1E          N/A     76  48  37 S7        30.09S
$$

TXZ055-058-074-075-080-082-260200-
TEXAS TECH WEST TEXAS MESONET/FAR WEST/SOUTHWEST MOUNTAINS/TRANS PECOS

CITY           SKY/WX    TMP DP  RH WIND       PRES   REMARKS
PRSMN GAP BBNP   N/A     82  51  34 E10       30.09S
GUADLPE MTN NP   N/A     70  34  26 W8        30.24S
$$